Weather Roundup
Issued by NWS Chicago, IL

Home | Current Version | Previous Version | Graphics & Text | Print | Product List | Glossary On
Versions: 1 2 3 4 5 6 7 8 9 10 11 12 13 14 15 16 17 18 19 20 21 22 23 24 25 26 27 28 29 30 31 32 33 34 35 36 37 38 39 40 41 42 43 44 45 46 47 48 49 50
000
NZUS59 KLOT 101412
HRRLOT

CHICAGO AREA WEATHER ROUNDUP
NATIONAL WEATHER SERVICE CHICAGO/ROMEOVILLE IL
800 AM CST SAT DEC 10 2016

NOTE: "FAIR" INDICATES FEW OR NO CLOUDS BELOW 12,000 FEET WITH NO
SIGNIFICANT WEATHER AND/OR OBSTRUCTIONS TO VISIBILITY.

* THESE STATIONS ARE NOT UNDER NWS QUALITY CONTROL. THEY ALSO MAY NOT
  REPORT WEATHER SUCH AS PRECIPITATION OR FOG.

ILZ005-006-012>014-019>023-101500-
NORTHEAST ILLINOIS

CITY           SKY/WX    TMP DP  RH WIND       PRES   REMARKS
OHARE          MOCLDY    18  12  77 W10       30.51R WCI   6
MIDWAY         MOCLDY    20  11  68 W9        30.52R WCI   9
AURORA         CLOUDY    19  14  81 SW6       30.53R WCI  11
LANSING*       CLOUDY    20  17  86 W7        30.53R WCI  11
JOLIET*        CLOUDY    21  16  81 W5        30.54R WCI  15
WAUKEGAN       PTCLDY    16  12  84 CALM      30.49R
DUPAGE AIRPORT CLOUDY    18  12  77 W8        30.52R WCI   8
WHEELING       CLOUDY    18  12  77 W6        30.52R WCI  10
KANKAKEE*      CLOUDY    22  16  79 W8        30.55R WCI  12
MORRIS*        CLOUDY    19  15  83 CALM      30.54R
LEWIS AIRPORT* CLOUDY    19  17  93 W7        30.54R WCI  10
NORTHERLY ISL    N/A     20  13  74 W6          N/A  WCI  12
$$

WIZ051-052-058>065-066-070>072-101500-
SOUTHEAST WISCONSIN

CITY           SKY/WX    TMP DP  RH WIND       PRES   REMARKS
MILWAUKEE      PTCLDY    18  11  74 W7        30.48R WCI   9
KENOSHA*       CLEAR     13  10  88 W5        30.48R WCI   5
RACINE*        CLEAR     16  11  80 W7        30.49S WCI   6
BURLINGTON     CLEAR     20  17  90 CALM      30.49R
WAUKESHA       PTCLDY    14   9  79 W8        30.47R WCI   3
WEST BEND      MOCLDY    14  12  92 W9        30.45S WCI   2
$$

INZ001>003-010>013-019-020-101500-
NORTHWEST INDIANA

CITY           SKY/WX    TMP DP  RH WIND       PRES   REMARKS
GARY*          CLOUDY    21  16  79 W12       30.53R WCI   9
MICHIGAN CITY* NOT AVBL
RENSSELAER*    NOT AVBL
VALPARAISO     CLOUDY    21  14  74 W9        30.51S WCI  11
$$

LMZ740>746-101500-
SOUTHERN LAKE MICHIGAN

STATION/POSITION TIME  SKY/WX   TEMP WIND        PRES    VSBY
                                AIR  DIR/SP/G
                 (UTC)          (F)  (DEG/KT/KT) (MB)    (MI)
HARRISON CRIB    NOT AVBL
BURNHAM HARBOR   1400            20  270/  7/  9   N/A
CALUMET HARBOR   1348            20  240/  5/  9 1032.8R
BURNS HARBOR     1340            22  230/ 11/ 14 1033.5R
MICHIGAN CITY    NOT AVBL
$$

ABBREVIATIONS USED IN REMARKS
   TC - TEMPERATURE IN CELSIUS
  WCI - WIND CHILL INDEX
   HX - HEAT INDEX
  VSB - VISIBILITY
$$



USA.gov is the U.S. government's official web portal to all federal, state and local government web resources and services.